FW1310 Weather Reports


time (UTC)temp
F
wind
direction
speed
knots
gust
knots
rain 1hr
in
rain 24hr
in
rain mn
in
humidity
%
barometer
mb
20240222102500 64 350 2.6 4.3 0.00 0.00 0.00 86 995.8
20240222101001 64 75 4.3 7.0 0.00 0.00 0.00 85 995.9
20240222100001 64 301 1.7 5.2 0.00 0.00 0.00 84 995.8
20240222095500 64 44 3.5 6.1 0.00 0.00 0.00 84 996.0
20240222094500 64 276 0.9 2.6 0.00 0.00 0.00 84 996.7
20240222094000 64 209 1.7 5.2 0.00 0.00 0.00 84 996.6
20240222093000 64 87 1.7 7.8 0.00 0.00 0.00 84 997.0
20240222092500 64 6 1.7 4.3 0.00 0.00 0.00 84 997.1
20240222092000 64 0 2.6 5.2 0.00 0.00 0.00 84 996.8
20240222091500 64 86 1.7 4.3 0.00 0.00 0.00 84 996.8
20240222090501 64 198 1.7 5.2 0.00 0.00 0.00 84 997.1
20240222090000 64 147 1.7 2.6 0.00 0.00 0.00 84 997.2
20240222084500 64 325 2.6 6.1 0.00 0.00 0.00 84 996.5
20240222084000 64 15 1.7 8.7 0.00 0.00 0.00 84 996.1
20240222083500 64 3 5.2 8.7 0.00 0.00 0.00 84 996.0
20240222083000 64 24 3.5 8.7 0.00 0.00 0.00 85 995.9
20240222082500 64 49 4.3 10.4 0.00 0.00 0.00 85 995.7
20240222082001 64 319 4.3 7.0 0.00 0.00 0.00 85 995.9
20240222081500 64 56 4.3 15.6 0.00 0.00 0.00 86 995.6
20240222080500 64 26 7.0 12.2 0.00 0.00 0.00 86 995.6
20240222080000 64 58 6.1 13.9 0.00 0.00 0.00 86 995.7
20240222075500 64 22 6.1 13.0 0.00 0.00 0.00 86 995.7
20240222075000 64 39 5.2 10.4 0.00 0.00 0.00 86 995.8
20240222074501 64 8 5.2 8.7 0.00 0.00 0.00 86 995.8
20240222073500 64 336 4.3 7.8 0.00 0.00 0.00 86 995.8
20240222073000 64 2 3.5 10.4 0.00 0.00 0.00 86 995.5
20240222072000 64 42 4.3 13.9 0.00 0.00 0.00 86 995.7
20240222071500 64 3 3.5 13.0 0.00 0.00 0.00 86 995.8
20240222071000 64 293 4.3 12.2 0.00 0.00 0.00 86 995.8
20240222070000 64 303 3.5 10.4 0.00 0.00 0.00 86 995.9
20240222065500 64 47 9.6 14.8 0.00 0.00 0.00 86 996.1
20240222065001 64 16 7.0 20.0 0.00 0.00 0.00 86 995.9
20240222064000 64 314 5.2 14.8 0.00 0.00 0.00 86 996.0
20240222063500 64 42 5.2 18.2 0.00 0.00 0.00 86 996.0
20240222063000 64 311 5.2 7.8 0.00 0.00 0.00 86 996.1
20240222062500 64 230 5.2 13.9 0.00 0.00 0.00 86 996.1
20240222061500 64 23 6.1 11.3 0.00 0.00 0.00 86 996.3
20240222060000 64 52 6.1 14.8 0.00 0.00 0.00 85 996.4
20240222054001 64 348 5.2 8.7 0.00 0.00 0.00 85 996.8
20240222053500 64 48 7.8 13.9 0.00 0.00 0.00 85 996.7
20240222052001 64 311 4.3 10.4 0.00 0.00 0.00 85 997.1
20240222051500 64 6 5.2 12.2 0.00 0.00 0.00 85 997.1
20240222051001 64 32 6.1 11.3 0.00 0.00 0.00 85 997.2
20240222050500 64 347 4.3 11.3 0.00 0.00 0.00 85 997.0
20240222050000 64 358 4.3 13.0 0.00 0.00 0.00 85 997.1
20240222045500 64 37 6.1 12.2 0.00 0.00 0.00 85 997.2
20240222045000 64 0 6.1 13.0 0.00 0.00 0.00 84 997.4
20240222044500 64 34 5.2 13.0 0.00 0.00 0.00 84 997.4
20240222044001 65 258 4.3 14.8 0.00 0.00 0.00 84 997.3
20240222043500 65 36 7.8 18.2 0.00 0.00 0.00 84 997.2
20240222043000 65 26 6.1 13.0 0.00 0.00 0.00 84 997.2
20240222042500 65 39 4.3 10.4 0.00 0.00 0.00 84 997.5
20240222042000 65 54 5.2 10.4 0.00 0.00 0.00 84 997.5
20240222041500 65 291 4.3 10.4 0.00 0.00 0.00 83 997.4
20240222041000 65 314 4.3 11.3 0.00 0.00 0.00 83 997.3
20240222040500 65 21 4.3 11.3 0.00 0.00 0.00 83 997.2
20240222040000 65 346 6.1 11.3 0.00 0.00 0.00 83 997.3
20240222035000 65 299 4.3 8.7 0.00 0.00 0.00 82 997.1
20240222034500 65 28 5.2 13.9 0.00 0.00 0.00 82 997.2
20240222033500 65 353 4.3 7.8 0.00 0.00 0.00 81 997.1
20240222032501 65 315 5.2 7.8 0.00 0.00 0.00 80 997.1
20240222031500 65 9 3.5 10.4 0.00 0.00 0.00 79 997.3
20240222031000 66 127 4.3 7.8 0.00 0.00 0.00 78 997.0
20240222030501 66 349 5.2 10.4 0.00 0.00 0.00 78 997.2
20240222025000 66 344 3.5 7.0 0.00 0.00 0.00 76 996.9
20240222024001 67 353 4.3 7.0 0.00 0.00 0.00 75 996.8
20240222023500 67 311 3.5 10.4 0.00 0.00 0.00 75 996.9
20240222023000 67 334 4.3 10.4 0.00 0.00 0.00 74 997.0
20240222022500 67 349 5.2 8.7 0.00 0.00 0.00 74 997.2
20240222022001 67 320 5.2 10.4 0.00 0.00 0.00 74 997.0
20240222021501 68 331 3.5 7.0 0.00 0.00 0.00 74 996.7
20240222021000 68 306 4.3 7.8 0.00 0.00 0.00 74 996.8
20240222020500 68 344 5.2 12.2 0.00 0.00 0.00 73 996.7
20240222020000 68 307 7.8 12.2 0.00 0.00 0.00 73 996.7
20240222015501 69 334 7.0 12.2 0.00 0.00 0.00 72 996.6
20240222015000 69 15 5.2 12.2 0.00 0.00 0.00 72 996.3
20240222014500 69 350 7.8 11.3 0.00 0.00 0.00 72 996.4
20240222014000 69 300 5.2 8.7 0.00 0.00 0.00 71 996.4
20240222013500 69 317 5.2 10.4 0.00 0.00 0.00 71 996.2
20240222013000 70 4 7.0 11.3 0.00 0.00 0.00 71 996.4
20240222012500 70 350 4.3 12.2 0.00 0.00 0.00 70 996.4
20240222012000 70 67 5.2 12.2 0.00 0.00 0.00 70 996.6
20240222011500 70 29 4.3 11.3 0.00 0.00 0.00 69 996.7
20240222011000 71 296 5.2 8.7 0.00 0.00 0.00 69 996.4
20240222010500 71 298 6.1 10.4 0.00 0.00 0.00 67 996.3
20240222010001 71 349 5.2 11.3 0.00 0.00 0.00 67 996.4
20240222005000 71 328 4.3 11.3 0.00 0.00 0.00 66 996.6
20240222004501 71 234 5.2 13.0 0.00 0.00 0.00 66 996.8
20240222004001 72 313 5.2 8.7 0.00 0.00 0.00 66 997.0
20240222003500 72 295 4.3 7.8 0.00 0.00 0.00 67 997.1
20240222003001 72 293 5.2 8.7 0.00 0.00 0.00 66 997.2
20240222002501 72 280 4.3 8.7 0.00 0.00 0.00 66 997.3
20240222001502 73 356 4.3 10.4 0.00 0.00 0.00 65 997.2
20240222001000 73 301 3.5 6.1 0.00 0.00 0.00 65 997.5
20240222000500 73 8 2.6 6.1 0.00 0.00 0.00 65 997.6
20240222000000 74 351 3.5 6.1 0.00 0.00 0.00 64 997.6
20240221235500 74 289 4.3 7.8 0.00 0.00 0.00 64 997.6
20240221235000 74 1 4.3 7.0 0.00 0.00 0.00 63 997.8
20240221234500 74 288 2.6 7.0 0.00 0.00 0.00 62 997.6
20240221234000 74 259 3.5 8.7 0.00 0.00 0.00 62 997.8
20240221233500 74 308 3.5 7.8 0.00 0.00 0.00 62 998.0
20240221233001 75 311 4.3 8.7 0.00 0.00 0.00 62 998.0
20240221232501 75 338 3.5 8.7 0.00 0.00 0.00 62 998.2
20240221232000 75 4 2.6 11.3 0.00 0.00 0.00 62 998.0
20240221231500 75 28 5.2 11.3 0.00 0.00 0.00 62 998.1
20240221231000 75 93 6.1 12.2 0.00 0.00 0.00 61 997.8
20240221230000 75 0 2.6 7.8 0.00 0.00 0.00 60 997.9
20240221225500 75 333 4.3 7.8 0.00 0.00 0.00 61 998.0
20240221225001 75 327 5.2 7.8 0.00 0.00 0.00 60 998.2
20240221224500 75 290 4.3 6.1 0.00 0.00 0.00 60 998.2
20240221223501 75 13 3.5 7.8 0.00 0.00 0.00 58 998.2
20240221223001 75 350 5.2 8.7 0.00 0.00 0.00 58 998.2
20240221222500 75 4 4.3 7.8 0.00 0.00 0.00 57 998.4
20240221222001 75 318 4.3 11.3 0.00 0.00 0.00 57 998.3
20240221221500 75 294 5.2 8.7 0.00 0.00 0.00 57 998.4
20240221221000 75 320 5.2 13.9 0.00 0.00 0.00 56 998.5
20240221220501 76 328 5.2 12.2 0.00 0.00 0.00 53 998.6
20240221220000 76 306 5.2 11.3 0.00 0.00 0.00 54 998.7
20240221215501 76 32 5.2 10.4 0.00 0.00 0.00 53 998.7
20240221215001 75 61 4.3 8.7 0.00 0.00 0.00 54 998.8
20240221214500 76 304 5.2 12.2 0.00 0.00 0.00 54 998.8
20240221214001 76 249 3.5 13.0 0.00 0.00 0.00 53 998.9
20240221213501 76 288 5.2 7.8 0.00 0.00 0.00 55 998.9
20240221212500 75 325 5.2 10.4 0.00 0.00 0.00 57 999.0
20240221212000 75 37 5.2 12.2 0.00 0.00 0.00 57 999.1
20240221211500 76 36 4.3 7.8 0.00 0.00 0.00 58 999.2
20240221211000 75 306 3.5 7.8 0.00 0.00 0.00 60 999.3
20240221210000 75 2 4.3 10.4 0.00 0.00 0.00 57 999.5
20240221205500 75 13 5.2 11.3 0.00 0.00 0.00 60 999.6
20240221205000 75 284 4.3 8.7 0.00 0.00 0.00 59 999.5
20240221204500 75 356 5.2 10.4 0.00 0.00 0.00 60 999.6
20240221203500 75 25 5.2 8.7 0.00 0.00 0.00 62 999.8
20240221203001 75 336 4.3 8.7 0.00 0.00 0.00 63 999.8
20240221202501 75 349 4.3 8.7 0.00 0.00 0.00 63 1000.0
20240221202001 75 337 4.3 10.4 0.00 0.00 0.00 62 999.9
20240221201500 75 357 4.3 13.9 0.00 0.00 0.00 62 1000.1
20240221201001 75 331 6.1 13.9 0.00 0.00 0.00 62 999.9
20240221200500 75 22 4.3 12.2 0.00 0.00 0.00 62 1000.3
20240221200001 76 323 6.1 12.2 0.00 0.00 0.00 60 1000.2
20240221195501 76 291 5.2 7.8 0.00 0.00 0.00 60 1000.3
20240221195000 76 321 5.2 11.3 0.00 0.00 0.00 59 1000.4
20240221194500 76 316 4.3 10.4 0.00 0.00 0.00 60 1000.5
20240221193500 77 16 6.1 12.2 0.00 0.00 0.00 58 1000.7
20240221193000 76 342 4.3 11.3 0.00 0.00 0.00 58 1001.0
20240221192500 76 333 6.1 12.2 0.00 0.00 0.00 59 1001.1
20240221192001 76 320 4.3 8.7 0.00 0.00 0.00 58 1001.2
20240221191500 76 255 5.2 10.4 0.00 0.00 0.00 58 1001.4
20240221190500 76 346 5.2 10.4 0.00 0.00 0.00 60 1001.6
20240221190000 76 333 5.2 11.3 0.00 0.00 0.00 58 1001.6
20240221185000 77 26 4.3 7.8 0.00 0.00 0.00 58 1002.0
20240221184500 76 40 4.3 7.0 0.00 0.00 0.00 59 1001.9
20240221184001 76 327 3.5 6.1 0.00 0.00 0.00 60 1002.1
20240221183501 76 5 5.2 7.0 0.00 0.00 0.00 57 1001.9
20240221183001 76 324 3.5 7.8 0.00 0.00 0.00 59 1002.2
20240221182000 76 0 3.5 7.0 0.00 0.00 0.00 58 1002.4
20240221181501 76 340 2.6 7.8 0.00 0.00 0.00 58 1002.5
20240221181000 76 348 4.3 7.8 0.00 0.00 0.00 57 1002.6
20240221180000 76 353 4.3 8.7 0.00 0.00 0.00 57 1002.8
20240221175500 75 331 4.3 7.0 0.00 0.00 0.00 58 1002.8
20240221175000 75 353 4.3 7.0 0.00 0.00 0.00 58 1003.0
20240221174501 74 41 2.6 7.8 0.00 0.00 0.00 59 1003.2
20240221174000 75 30 5.2 7.8 0.00 0.00 0.00 56 1003.4
20240221173500 74 238 2.6 10.4 0.00 0.00 0.00 57 1003.5
20240221173001 74 345 4.3 13.0 0.00 0.00 0.00 58 1003.5
20240221172500 74 25 3.5 7.0 0.00 0.00 0.00 58 1003.6
20240221172001 74 18 5.2 8.7 0.00 0.00 0.00 59 1003.8
20240221171001 73 315 3.5 7.0 0.00 0.00 0.00 61 1003.9
20240221170000 71 336 4.3 8.7 0.00 0.00 0.00 62 1004.1
20240221165001 71 297 2.6 6.1 0.00 0.00 0.00 63 1004.4
20240221164500 71 322 3.5 7.8 0.00 0.00 0.00 63 1004.3
20240221164000 70 3 2.6 6.1 0.00 0.00 0.00 64 1004.4
20240221163501 71 339 2.6 8.7 0.00 0.00 0.00 64 1004.4
20240221162500 69 290 1.7 7.8 0.00 0.00 0.00 67 1004.5
20240221162000 69 5 5.2 8.7 0.00 0.00 0.00 68 1004.5
20240221161501 68 29 2.6 11.3 0.00 0.00 0.00 69 1004.6
20240221161001 68 309 4.3 11.3 0.00 0.00 0.00 69 1004.7
20240221160501 68 223 2.6 7.0 0.00 0.00 0.00 70 1004.8
20240221155500 67 1 4.3 7.8 0.00 0.00 0.00 74 1004.6
20240221155000 66 342 2.6 10.4 0.00 0.00 0.00 75 1004.6
20240221154501 66 9 4.3 10.4 0.00 0.00 0.00 76 1004.7
20240221154000 66 340 6.1 10.4 0.00 0.00 0.00 75 1004.6
20240221153501 65 38 3.5 7.0 0.00 0.00 0.00 76 1004.7
20240221153001 65 340 2.6 7.0 0.00 0.00 0.00 78 1004.7
20240221152001 64 122 4.3 7.8 0.00 0.00 0.00 78 1004.8
20240221151501 64 5 4.3 10.4 0.00 0.00 0.00 80 1004.7
20240221151000 64 273 1.7 7.8 0.00 0.00 0.00 80 1004.7
20240221150500 64 322 1.7 7.0 0.00 0.00 0.00 81 1004.8
20240221150001 63 50 2.6 7.0 0.00 0.00 0.00 81 1004.8
20240221145501 63 29 1.7 6.1 0.00 0.00 0.00 83 1004.6
20240221145000 62 14 1.7 12.2 0.00 0.00 0.00 84 1004.5
20240221144500 62 7 3.5 13.0 0.00 0.00 0.00 84 1004.4
20240221143501 61 329 3.5 10.4 0.00 0.00 0.00 86 1004.4
20240221142501 61 125 2.6 6.1 0.00 0.00 0.00 87 1004.4
20240221141500 61 167 1.7 4.3 0.00 0.00 0.00 87 1004.3
20240221141001 60 66 3.5 5.2 0.00 0.00 0.00 87 1004.4
20240221140501 60 12 1.7 7.8 0.00 0.00 0.00 88 1004.4
20240221140001 60 344 3.5 7.0 0.00 0.00 0.00 88 1004.2
20240221135500 60 290 1.7 4.3 0.00 0.00 0.00 89 1004.3
20240221135001 60 6 2.6 7.0 0.00 0.00 0.00 89 1004.3
20240221134501 60 32 2.6 7.0 0.00 0.00 0.00 89 1004.3
20240221134001 60 48 2.6 5.2 0.00 0.00 0.00 89 1004.3
20240221133500 60 346 0.9 1.7 0.00 0.00 0.00 89 1004.4
20240221133000 60 15 1.7 4.3 0.00 0.00 0.00 89 1004.3
20240221132500 60 331 1.7 4.3 0.00 0.00 0.00 89 1004.4
20240221132001 60 2 2.6 5.2 0.00 0.00 0.00 89 1004.4
20240221131501 60 312 1.7 6.1 0.00 0.00 0.00 89 1004.3
20240221130501 60 55 4.3 7.8 0.00 0.00 0.00 89 1004.1
20240221130000 59 349 4.3 7.8 0.00 0.00 0.00 89 1004.2
20240221125500 59 321 4.3 7.8 0.00 0.00 0.00 90 1004.2
20240221125000 59 59 1.7 7.8 0.00 0.00 0.00 90 1004.2
20240221124501 59 50 3.5 6.1 0.00 0.00 0.00 90 1004.2
20240221124001 59 32 1.7 7.0 0.00 0.00 0.00 90 1004.3
20240221123501 59 325 1.7 7.0 0.00 0.00 0.00 90 1004.2
20240221123000 59 14 4.3 7.0 0.00 0.00 0.00 90 1004.2
20240221122500 59 346 1.7 7.0 0.00 0.00 0.00 90 1004.2
20240221122000 59 65 2.6 5.2 0.00 0.00 0.00 90 1004.3
20240221121501 59 278 2.6 5.2 0.00 0.00 0.00 91 1004.0
20240221121001 60 359 1.7 6.1 0.00 0.00 0.00 91 1004.2
20240221120501 60 19 2.6 6.1 0.00 0.00 0.00 91 1004.2
20240221120000 60 75 3.5 6.1 0.00 0.00 0.00 91 1004.2
20240221115500 60 302 2.6 7.0 0.00 0.00 0.00 91 1004.2
20240221115001 60 1 2.6 5.2 0.00 0.00 0.00 91 1004.1
20240221114501 60 17 1.7 4.3 0.00 0.00 0.00 91 1004.0
20240221114001 60 13 2.6 6.1 0.00 0.00 0.00 91 1004.0
20240221112501 60 37 2.6 7.0 0.00 0.00 0.00 92 1003.8
20240221112001 60 2 4.3 10.4 0.00 0.00 0.00 92 1003.9
20240221111500 60 37 2.6 6.1 0.00 0.00 0.00 92 1003.7
20240221111000 60 351 2.6 7.8 0.00 0.00 0.00 92 1003.7
20240221110001 60 4 2.6 7.0 0.00 0.00 0.00 91 1003.7
20240221104001 60 1 5.2 10.4 0.00 0.00 0.00 92 1003.7
20240221103500 60 168 4.3 8.7 0.00 0.00 0.00 92 1003.5
20240221103001 60 22 4.3 11.3 0.00 0.00 0.00 92 1003.5